Humidity-temperature Sensor

Selected Measurement Type: Relative Humidity

 
Relative Humidity [%]     6 entries per hour
Showing data from 10/14/2014 (00:00:00 Z) to 10/11/2014 (00:01:00 Z)
Previous Next [ Day | 3-Days | 7-Days ]
First Last
Prev [ Day | 3-Days | 7-Days ] Next
First Last

Start Time:     :
End Time:     :     
Time (in GMT) :00 :50 :40 :30 :20 :10
Previous Next [ Day | 3-Days | 7-Days ]
First Last
Prev [ Day | 3-Days | 7-Days ] Next
First Last


123 => good data
MM => data is determined as missing
-- => data not received/configured
Back to Top Back to Top
10/14/2014 00:00 to 23:10 75.71 75.37 74.48 74.29 73.91 73.42
10/13/2014 23:00 to 22:10 73.02 73.69 74.95 75.33 76.60 76.34
10/13/2014 22:00 to 21:10 76.03 74.37 73.46 72.59 73.80 74.27
10/13/2014 21:00 to 20:10 74.25 73.63 73.89 72.57 73.67 74.33
10/13/2014 20:00 to 19:10 78.38 74.18 75.62 75.64 76.81 76.07
10/13/2014 19:00 to 18:10 -- -- -- -- -- --
10/13/2014 18:00 to 17:10 77.47 77.17 77.09 75.20 75.22 76.94
10/13/2014 17:00 to 16:10 77.28 76.39 75.26 75.09 74.67 74.05
10/13/2014 16:00 to 15:10 73.08 73.06 73.40 72.85 71.85 72.44
10/13/2014 15:00 to 14:10 70.98 72.80 72.85 73.67 74.63 75.54
10/13/2014 14:00 to 13:10 75.45 75.86 75.35 74.95 75.43 74.80
10/13/2014 13:00 to 12:10 75.18 78.53 78.82 79.40 80.24 79.99
10/13/2014 12:00 to 11:10 78.74 77.57 77.28 77.70 77.15 77.00
10/13/2014 11:00 to 10:10 76.51 77.66 77.66 79.29 79.93 79.76
10/13/2014 10:00 to 9:10 80.20 81.45 79.21 77.04 77.34 78.32
10/13/2014 09:00 to 8:10 78.57 77.64 76.77 77.40 77.30 77.76
10/13/2014 08:00 to 7:10 78.00 77.57 77.38 77.53 77.68 77.68
10/13/2014 07:00 to 6:10 76.90 77.00 75.54 74.90 74.46 76.09
10/13/2014 06:00 to 5:10 77.40 77.04 77.74 77.09 77.30 77.62
10/13/2014 05:00 to 4:10 77.17 79.14 79.08 78.27 77.87 76.26
10/13/2014 04:00 to 3:10 76.66 76.43 75.96 77.47 76.73 77.47
10/13/2014 03:00 to 2:10 78.04 78.27 78.91 79.16 79.31 79.65
10/13/2014 02:00 to 1:10 79.06 79.25 78.85 79.18 78.19 78.48
10/13/2014 01:00 to 0:10 78.68 78.72 79.67 80.63 79.80 79.97
10/13/2014 00:00 to 23:10 79.67 79.50 79.86 79.97 80.10 81.30
10/12/2014 23:00 to 22:10 81.28 80.88 80.96 81.37 81.37 81.69
10/12/2014 22:00 to 21:10 81.86 81.13 80.24 79.63 80.44 81.73
10/12/2014 21:00 to 20:10 84.02 81.30 80.90 82.11 83.06 79.74
10/12/2014 20:00 to 19:10 80.22 80.07 80.24 80.44 81.20 81.28
10/12/2014 19:00 to 18:10 -- -- -- -- -- --
10/12/2014 18:00 to 17:10 82.64 82.85 82.19 82.66 81.39 80.20
10/12/2014 17:00 to 16:10 78.93 78.74 78.29 76.64 76.45 78.40
10/12/2014 16:00 to 15:10 78.57 78.42 80.27 80.88 80.12 79.35
10/12/2014 15:00 to 14:10 78.89 79.61 79.71 80.29 82.11 82.00
10/12/2014 14:00 to 13:10 82.05 81.90 82.41 83.19 82.64 81.96
10/12/2014 13:00 to 12:10 82.30 82.02 81.98 82.45 82.66 82.70
10/12/2014 12:00 to 11:10 82.72 82.43 81.88 81.62 81.22 81.58
10/12/2014 11:00 to 10:10 82.58 82.13 81.01 80.29 80.41 80.58
10/12/2014 10:00 to 9:10 80.63 80.33 80.10 79.71 80.14 81.22
10/12/2014 09:00 to 8:10 80.99 81.45 82.02 81.88 82.41 82.55
10/12/2014 08:00 to 7:10 81.81 82.05 82.62 83.15 82.70 82.51
10/12/2014 07:00 to 6:10 82.89 83.55 83.74 83.76 83.78 83.28
10/12/2014 06:00 to 5:10 83.06 82.47 81.98 81.30 81.07 80.24
10/12/2014 05:00 to 4:10 80.07 78.91 79.27 78.76 80.20 80.56
10/12/2014 04:00 to 3:10 80.96 80.90 81.60 82.45 83.15 81.73
10/12/2014 03:00 to 2:10 81.83 81.96 82.98 83.38 84.50 85.54
10/12/2014 02:00 to 1:10 85.86 86.56 88.83 89.91 90.74 91.50
10/12/2014 01:00 to 0:10 91.05 91.61 91.71 91.97 91.58 91.18
10/12/2014 00:00 to 23:10 90.25 89.99 90.86 92.11 93.11 92.58
10/11/2014 23:00 to 22:10 92.14 91.73 91.94 91.63 91.12 90.40
10/11/2014 22:00 to 21:10 88.57 87.26 87.13 86.48 87.11 88.32
10/11/2014 21:00 to 20:10 89.83 89.02 88.11 82.70 82.39 81.73
10/11/2014 20:00 to 19:10 81.64 81.73 81.79 82.87 83.32 83.51
10/11/2014 19:00 to 18:10 85.03 85.03 84.97 85.71 86.94 87.20
10/11/2014 18:00 to 17:10 87.32 87.28 86.37 84.74 84.31 84.06
10/11/2014 17:00 to 16:10 84.29 83.76 84.02 83.89 85.25 85.61
10/11/2014 16:00 to 15:10 84.50 85.10 85.52 85.20 84.40 82.81
10/11/2014 15:00 to 14:10 82.45 83.21 84.34 84.46 84.72 84.61
10/11/2014 14:00 to 13:10 84.10 83.53 82.26 81.49 81.41 82.09
10/11/2014 13:00 to 12:10 81.98 82.32 82.79 83.34 83.97 82.22
10/11/2014 12:00 to 11:10 81.73 81.64 81.26 80.82 79.97 80.82
10/11/2014 11:00 to 10:10 81.96 83.64 83.64 83.61 83.70 84.19
10/11/2014 10:00 to 9:10 85.54 85.84 83.44 82.45 83.97 84.70
10/11/2014 09:00 to 8:10 85.37 85.97 86.43 86.29 84.08 80.77
10/11/2014 08:00 to 7:10 80.03 79.82 80.71 81.60 81.64 83.49
10/11/2014 07:00 to 6:10 84.50 85.08 84.61 83.97 82.89 81.03
10/11/2014 06:00 to 5:10 80.48 80.10 80.44 80.29 80.29 80.01
10/11/2014 05:00 to 4:10 80.41 81.22 83.30 81.01 80.63 81.03
10/11/2014 04:00 to 3:10 79.69 79.80 79.88 81.66 79.14 79.57
10/11/2014 03:00 to 2:10 79.52 79.57 79.38 79.80 80.54 82.07
10/11/2014 02:00 to 1:10 78.91 78.34 77.76 77.55 77.89 77.34
10/11/2014 01:00 to 0:10 77.26 77.36 77.15 77.40 77.72 77.28